sat.trackr.live / text

‹ back to catalog

STARLINK-32579

NORAD 61922 · 2024-207L

PAYLOAD ACTIVE UNKNOWN

§ Identity

Operator
Country
US
Launch date
2024-11-11
Launch site
AFETR
Launch vehicle
Mass (kg)
RCS (m²)

Purposes: comms

External: N2YO · Heavens-Above · Gunter

§ Orbital elements

Epoch: 2026-05-24T21:23:52.187136Z

Period
94.27 min
Inclination
42.9969°
Eccentricity
0.0000662
Mean motion
15.27583301 rev/d
Perigee alt
482.6 km
Apogee alt
483.5 km
Semi-major
6,861.2 km
B*
3.2189e-4
RAAN
215.0699°
Arg perigee
289.9527°
Mean anomaly
70.1253°
Rev number
8,633

§ Raw data

STARLINK-325791 61922U 24207L   26144.89157624  .00008607  00000+0  32189-3 0  99902 61922  42.9969 215.0699 0000662 289.9527  70.1253 15.27583301 86332

JSON: /api/v1/satellites/61922 · /tle

For live sub-satellite position, see the globe view (requires WebGL).

§ Visibility from observer

Set your observer location to see the next 7 days of passes ≥ 10°. The values pass through the URL so the page stays shareable.

No JS? Fill the form by hand. The geolocation button needs JavaScript.